Regional Weather Roundup
Issued by NWS

Home | Current Version | Previous Version | Graphics & Text | Print | Product List | Glossary Off
Versions: 1 2 3 4 5 6 7 8 9 10 11 12 13 14 15 16 17 18 19 20 21 22 23 24 25 26 27 28 29 30 31 32 33 34 35 36 37 38 39 40 41 42 43 44 45 46

000
ASUS45 KBOU 251610
RWRCO

WEATHER ROUNDUP FOR COLORADO
NATIONAL WEATHER SERVICE DENVER/BOULDER CO
900 AM MST SUN FEB 25 2018

NOTE: "FAIR" INDICATES FEW OR NO CLOUDS BELOW 12000 FEET WITH NO
SIGNIFICANT WEATHER AND/OR OBSTRUCTIONS TO VISIBILITY.

COZ001>005-013-030-031-251700-
...NORTHWEST COLORADO...

CITY           SKY/WX    TMP DP  RH WIND       PRES   REMARKS
CRAIG          FAIR      12   7  80 CALM      30.03R
HAYDEN         FAIR      12   7  80 W7        30.02R WCI   1
MEEKER         FAIR      14   8  77 CALM      30.05R
RANGELY        FAIR      12   7  79 E3        30.11S
RABBIT EARS PA SNOW     N/A N/A N/A W12G28    29.76S VSB 1/2
STEAMBOAT SPGS CLOUDY    15  10  83 CALM      29.99R
WALDEN         CLOUDY    14   5  67 SW18G24   29.87R WCI  -3
$$

COZ006>008-011-251700-
...WEST CENTRAL VALLEYS...

CITY           SKY/WX    TMP DP  RH WIND       PRES   REMARKS
GRAND JUNCTION FAIR      28  22  78 E6        30.12R WCI  22
MONTROSE       PTSUNNY   23  18  81 CALM      30.13R
EAGLE          FAIR      18  11  74 SE5       30.04R WCI  11
RIFLE          FAIR      19  13  77 CALM      30.10R
DELTA          FAIR      27  22  79 CALM      30.13R
NUCLA          FAIR      23  16  74 CALM      30.16R
$$

COZ017>023-064>068-251700-
...SOUTHWEST COLORADO...

CITY           SKY/WX    TMP DP  RH WIND       PRES   REMARKS
DURANGO        FAIR      26  12  55 MISG      30.04R
CORTEZ         FAIR      29  15  56 VRB7      30.12R WCI  22
PAGOSA SPRINGS FAIR      17  16  93 CALM      30.01R
TELLURIDE      LGT SNOW  15   9  78 W10       30.01R WCI   2
WOLF CREEK PAS   N/A      1   1 100 SW9       29.89R WCI -14
$$

COZ009-010-012-014-032>034-037-058>063-251700-
...CENTRAL COLORADO...

CITY           SKY/WX    TMP DP  RH WIND       PRES   REMARKS
ASPEN          PTSUNNY   14  10  84 CALM      29.97R
BUENA VISTA    FAIR      22  -4  33 SW10G16   29.90R WCI  11
COPPER MTN     CLOUDY     1  -6  71 W12G30    29.75R WCI -15
BERTHOUD PASS  SNOW      -8 -17  65 MISG      29.60R VSB 1/4
COTTONWOOD PAS CLOUDY    19   1  45 N5        29.83R WCI  13
GUNNISON       LGT SNOW  12   9  85 CALM      29.99R FOG
GRANBY         CLOUDY    14   5  68 W14G20    29.91R HAZE    WCI  -1
KREMMLING      CLOUDY    25  12  58 W13       29.96R WCI  13
LEADVILLE      CLOUDY     7  -2  66 N13G24    29.84R HAZE    WCI  -9
MONARCH PASS   CLOUDY     0  -6  78 W31G39    29.84R WCI -27
SALIDA         FAIR      25  -1  31 W20       29.98S WCI  11
SUNLIGHT       LGT SNOW   3   0  85 SW9G20    29.93R WCI -11
WILKERSON PASS FAIR       3  -2  78 W7        29.78R WCI  -9
$$

COZ069>075-251700-
...SAN LUIS VALLEY/SANGRE DE CRISTO MOUNTAINS...

CITY           SKY/WX    TMP DP  RH WIND       PRES   REMARKS
ALAMOSA        FAIR      22   2  42 N10       29.96R WCI  11
DEL NORTE      FAIR      21   4  46 W10       29.95R WCI  10
LA VETA PASS   FAIR      16   0  48 W10G20    29.96R WCI   3
SAGUACHE       NOT AVBL
$$

COZ035-036-038>040-251700-
...NORTHERN COLORADO FRONT RANGE...

CITY           SKY/WX    TMP DP  RH WIND       PRES   REMARKS
DENVER INTL AP FAIR      31   4  31 W21G30    29.90R WCI  18
AURORA         MOSUNNY   30   2  29 W16G25    29.91R WCI  19
FRONT RANGE AP MOSUNNY   32   7  34 W21       29.91R WCI  20
ERIE MUNI ARPT FAIR      31   4  31 SW8       29.98R WCI  24
BOULDER MUN AP CLOUDY    32   3  29 CALM      29.92R
CENTENNIAL     FAIR      28   3  34 W12G21    29.91R WCI  18
BROOMFIELD     MOSUNNY   28   5  37 W17G23    29.92R WCI  16
FORT COLLINS   FAIR      26   8  46 NW5       29.92R WCI  20
LONGMONT       FAIR      34   5  29 SW12      29.93R WCI  26
$$

COZ041-046-047-076>085-087-088-251700-
...PIKES PEAK/PALMER DIVIDE AND SOUTHERN FOOTHILLS...

CITY           SKY/WX    TMP DP  RH WIND       PRES   REMARKS
COLO. SPRINGS  FAIR      30   2  30 NW14G21   29.91R WCI  19
A. F. ACADEMY  FAIR      29  -4  23 NW17      29.90R WCI  17
SCHRIEVER AFB  NOT AVBL
CHEYENNE MTN   FAIR      26 -11  19 N15G26    29.83R WCI  14
ELLICOTT         N/A    N/A N/A N/A W7        29.90
FALCON         FAIR      28  -6  22 MISG      29.90R
FORT CARSON    FAIR      27   8  45 E6          N/A  WCI  20
LIMON          FAIR      30  11  45 NW9       29.92R WCI  22
MONUMENT HILL  FAIR      27  -4  26 W21G26    29.89R WCI  13
CANON CITY     SUNNY     32  10  40 SW6       29.95S WCI  26
WALSENBURG     NOT AVBL
TRINIDAD       FAIR      34   8  33 NW16      29.94R WCI  24
$$

COZ042>045-048>051-090-091-251700-
...NORTHEAST COLORADO...

CITY           SKY/WX    TMP DP  RH WIND       PRES   REMARKS
GREELEY ARPT   FAIR      25  11  55 SW6       29.93R WCI  18
AKRON          FAIR      29  10  45 W15       29.91R WCI  18
BURLINGTON     FAIR      32  14  47 SW18      29.96R WCI  20
WRAY           FAIR      34  12  40 W10       29.95R WCI  26
YUMA           NOT AVBL
STERLING       FAIR      30  14  51 CALM      29.93R
HOLYOKE        FAIR      34  16  47 W15       29.92S WCI  24
FORT MORGAN    FAIR      30  11  45 SW8       29.93R WCI  23
$$

COZ086-089-092>099-251700-
...SOUTHEAST COLORADO...

CITY           SKY/WX    TMP DP  RH WIND       PRES   REMARKS
PUEBLO         FAIR      29  11  47 W12       29.97R WCI  19
LA JUNTA       FAIR      27  13  55 VRB3      29.99R
LAMAR          FAIR      25  10  53 W8        29.99R WCI  16
SPRINGFIELD      N/A     28  10  46 CALM      29.95R
$$




USA.gov is the U.S. government's official web portal to all federal, state and local government web resources and services.